Вернуться в каталог

STARLINK-2448

АктивенСвязьVLEO
NORAD 48111·PAYLOAD·🇺🇸 United States

Запущен Apr 7, 2021 с Cape Canaveral Space Force Station

Loading…

Ближайшие Пролёты (ближайшие 24 часа)

TLE

СвежийSource: CelesTrak SupGP

Эпоха: Sep 14, 2026, 20:11 UTC

1 48111C 21027V   26257.84145833  .00027531  00000+0  42362-3 0  2579
2 48111  53.1514 341.0836 0003685   4.8123 163.9554 15.53584650    17

Отслеживайте STARLINK-2448 в реальном времени с AllMySat

Download on the App Store